DC0VZ-6 Weather Reports


Display with metric or nautical units.
time (UTC)temp
F
wind
direction
speed
MPH
gust
MPH
rain 1hr
in
rain 24hr
in
rain mn
in
humidity
%
barometer
mb
20260507082611 55 157 1.0 0.0 0.00 0.00 0.00 52 982.1
20260507081610 54 270 0.0 0.0 0.00 0.00 0.00 52 982.1
20260507080610 54 315 0.0 0.0 0.00 0.00 0.00 52 982.1
20260507075610 53 315 0.0 2.0 0.00 0.00 0.00 52 981.8
20260507074610 54 135 0.0 0.0 0.00 0.00 0.00 52 981.8
20260507073610 53 315 0.0 0.0 0.00 0.00 0.00 52 981.4
20260507072610 53 247 0.0 0.0 0.00 0.00 0.00 52 981.4
20260507071609 52 315 0.0 2.0 0.00 0.00 0.00 51 981.1
20260507070609 52 270 0.0 1.0 0.00 0.00 0.00 51 981.1
20260507065609 51 270 0.0 0.0 0.00 0.00 0.00 51 981.0
20260507064609 51 270 0.0 0.0 0.00 0.00 0.00 51 981.0
20260507063610 51 270 0.0 0.0 0.00 0.00 0.00 51 980.8
20260507062609 50 315 0.0 2.0 0.00 0.00 0.00 51 980.8
20260507061609 50 315 1.0 0.0 0.00 0.00 0.00 51 980.4
20260507060609 51 315 1.0 0.0 0.00 0.00 0.00 51 980.4
20260507055609 50 270 1.0 2.0 0.00 0.00 0.00 50 980.2
20260507054614 50 292 1.0 0.0 0.00 0.00 0.00 50 980.2
20260507053614 50 270 0.0 0.0 0.00 0.00 0.00 50 979.9
20260507052614 50 225 0.0 0.0 0.00 0.00 0.00 50 979.9
20260507051614 50 247 0.0 0.0 0.00 0.00 0.00 50 979.8
20260507050614 50 270 0.0 0.0 0.00 0.00 0.00 50 979.8
20260507045614 49 270 0.0 0.0 0.00 0.00 0.00 50 979.6
20260507044614 49 270 0.0 2.0 0.00 0.00 0.00 50 979.6
20260507043613 49 180 0.0 0.0 0.00 0.00 0.00 50 979.3
20260507042613 49 270 0.0 0.0 0.00 0.00 0.00 49 979.3
20260507041613 49 270 0.0 0.0 0.00 0.00 0.00 49 979.1
20260507040613 49 315 0.0 0.0 0.00 0.00 0.00 49 979.1
20260507035613 49 270 0.0 0.0 0.00 0.00 0.00 49 979.1
20260507034613 49 292 0.0 1.0 0.00 0.00 0.00 49 979.1
20260507033613 49 225 0.0 0.0 0.00 0.00 0.00 49 979.0
20260507032613 49 247 0.0 1.0 0.00 0.00 0.00 49 979.0
20260507031613 49 270 0.0 0.0 0.00 0.00 0.00 49 979.1
20260507030612 50 292 0.0 0.0 0.00 0.00 0.00 49 979.1
20260507025613 50 315 0.0 0.0 0.00 0.00 0.00 49 979.1
20260507024612 50 247 0.0 2.0 0.00 0.00 0.00 49 979.1
20260507023612 50 337 1.0 0.0 0.00 0.00 0.00 48 978.9
20260507022612 50 157 1.0 1.0 0.00 0.00 0.00 48 978.9
20260507021612 50 315 0.0 0.0 0.00 0.00 0.00 48 978.6
20260507020612 50 315 1.0 0.0 0.00 0.00 0.00 48 978.6
20260507015612 50 315 2.0 2.0 0.00 0.00 0.00 48 978.4
20260507014612 50 292 1.0 2.0 0.00 0.00 0.00 48 978.4
20260507013612 50 22 1.0 3.0 0.00 0.00 0.00 48 978.4
20260507012612 50 360 2.0 3.0 0.00 0.00 0.00 48 978.4
20260507011612 51 315 1.0 1.0 0.00 0.00 0.00 48 978.2
20260507010611 51 22 2.0 2.0 0.00 0.00 0.00 48 978.2
20260507005611 51 90 2.0 2.0 0.00 0.00 0.00 48 978.2
20260507004611 51 337 1.0 3.0 0.00 0.00 0.00 48 978.2
20260507003611 51 315 0.0 0.0 0.00 0.00 0.00 48 978.2
20260507002611 51 292 2.0 1.0 0.00 0.00 0.00 48 978.2
20260507001611 51 360 1.0 7.0 0.00 0.00 0.00 47 978.1
20260507000611 51 315 1.0 1.0 0.00 0.00 0.00 47 978.1
20260506235611 51 337 0.0 2.0 0.00 0.00 0.00 47 978.1
20260506234611 51 337 1.0 0.0 0.00 0.00 0.00 47 978.1
20260506233611 51 337 0.0 0.0 0.00 0.00 0.00 47 978.1
20260506232611 51 337 1.0 0.0 0.00 0.00 0.00 47 978.1
20260506231611 52 315 1.0 1.0 0.00 0.00 0.00 47 978.3
20260506230610 52 22 1.0 0.0 0.00 0.00 0.00 47 978.3
20260506225610 52 315 1.0 0.0 0.00 0.00 0.00 47 978.1
20260506224610 52 315 1.0 0.0 0.00 0.00 0.00 47 978.1
20260506223610 52 315 0.0 0.0 0.00 0.00 0.00 47 978.0
20260506222610 52 315 1.0 1.0 0.00 0.00 0.00 46 978.0
20260506221610 52 315 1.0 4.0 0.00 0.00 0.00 46 978.1
20260506220610 52 337 1.0 0.0 0.00 0.00 0.00 46 978.1
20260506215610 52 337 1.0 0.0 0.00 0.00 0.00 46 978.0
20260506214610 52 292 1.0 2.0 0.00 0.00 0.00 46 978.0
20260506213610 52 292 0.0 2.0 0.00 0.00 0.00 46 977.8
20260506212610 52 315 0.0 0.0 0.00 0.00 0.00 46 977.8
20260506211610 52 292 0.0 0.0 0.00 0.00 0.00 46 977.4
20260506210609 52 315 0.0 0.0 0.00 0.00 0.00 46 977.4
20260506205609 52 315 0.0 0.0 0.00 0.00 0.00 46 977.4
20260506204609 52 292 1.0 2.0 0.00 0.00 0.00 46 977.4
20260506203609 52 315 1.0 3.0 0.00 0.00 0.00 46 977.2
20260506202609 52 315 1.0 0.0 0.00 0.00 0.00 46 977.2
20260506201614 53 270 0.0 2.0 0.00 0.00 0.00 46 977.0
20260506200614 53 270 0.0 0.0 0.00 0.00 0.00 46 977.0
20260506195614 53 292 0.0 0.0 0.00 0.00 0.00 46 976.8
20260506194614 54 337 0.0 0.0 0.00 0.00 0.00 45 976.8
20260506193614 54 292 1.0 0.0 0.00 0.00 0.00 45 976.6
20260506192614 54 315 0.0 2.0 0.00 0.00 0.00 45 976.6
20260506191614 54 292 0.0 0.0 0.00 0.00 0.00 45 976.4
20260506190614 54 315 1.0 0.0 0.00 0.00 0.00 45 976.4
20260506185614 54 270 2.0 4.0 0.00 0.00 0.00 45 975.9
20260506184613 55 292 2.0 2.0 0.00 0.00 0.00 45 975.9
20260506183613 55 315 3.0 4.0 0.00 0.00 0.00 45 975.8
20260506182613 55 315 1.0 5.0 0.00 0.00 0.00 45 975.8
20260506181613 56 337 1.0 0.0 0.00 0.00 0.00 45 975.6
20260506180613 56 292 1.0 2.0 0.00 0.00 0.00 45 975.6
20260506175613 56 360 1.0 2.0 0.00 0.00 0.00 45 975.4
20260506174613 57 360 0.0 0.0 0.00 0.00 0.00 45 975.4
20260506173613 57 337 0.0 0.0 0.00 0.00 0.00 45 975.4
20260506172613 57 22 1.0 0.0 0.00 0.00 0.00 45 975.4
20260506171613 57 337 1.0 2.0 0.00 0.00 0.00 45 975.1
20260506170612 57 247 0.0 0.0 0.00 0.00 0.00 45 975.1
20260506165612 57 315 1.0 2.0 0.00 0.00 0.00 45 975.2
20260506164612 58 270 2.0 1.0 0.00 0.00 0.00 45 975.2
20260506163612 58 270 2.0 1.0 0.00 0.00 0.00 45 975.4
20260506162612 59 360 3.0 4.0 0.00 0.00 0.00 46 975.4
20260506161612 60 337 2.0 5.0 0.00 0.00 0.00 46 975.4
20260506160612 60 360 3.0 7.0 0.00 0.00 0.00 46 975.4
20260506155612 61 337 3.0 5.0 0.00 0.00 0.00 46 975.1
20260506154612 61 22 3.0 4.0 0.00 0.00 0.00 46 975.1
20260506153612 62 315 2.0 2.0 0.00 0.00 0.00 46 975.2
20260506152612 61 315 2.0 3.0 0.00 0.00 0.00 47 975.2
20260506151612 62 202 2.0 2.0 0.00 0.00 0.00 47 975.1
20260506150611 62 22 1.0 0.0 0.00 0.00 0.00 47 975.1
20260506145611 62 315 1.0 4.0 0.00 0.00 0.00 47 974.8
20260506144611 61 315 1.0 0.0 0.00 0.00 0.00 47 974.8
20260506143611 60 270 2.0 6.0 0.00 0.00 0.00 48 974.9
20260506142611 60 315 2.0 2.0 0.00 0.00 0.00 48 974.9
20260506141611 62 360 2.0 0.0 0.00 0.00 0.00 48 974.8
20260506140612 61 157 2.0 2.0 0.00 0.00 0.00 48 974.8
20260506135611 61 247 2.0 3.0 0.00 0.00 0.00 49 974.8
20260506134611 61 247 2.0 3.0 0.00 0.00 0.00 48 974.8
20260506133611 61 225 2.0 5.0 0.00 0.00 0.00 49 975.1
20260506132611 61 270 3.0 4.0 0.00 0.00 0.00 49 975.1
20260506131611 61 247 3.0 3.0 0.00 0.00 0.00 49 974.8
20260506130611 63 292 3.0 6.0 0.00 0.00 0.00 49 974.8
20260506125610 65 292 2.0 3.0 0.00 0.00 0.00 50 974.6
20260506124610 63 270 3.0 1.0 0.00 0.00 0.00 50 974.6
20260506123611 63 337 3.0 4.0 0.00 0.00 0.00 50 974.3
20260506122610 63 135 3.0 2.0 0.00 0.00 0.00 50 974.3
20260506121610 63 247 3.0 0.0 0.00 0.00 0.00 51 974.5
20260506120610 62 180 3.0 8.0 0.00 0.00 0.00 51 974.5
20260506115610 61 135 3.0 4.0 0.00 0.00 0.00 53 974.6
20260506114610 63 157 2.0 6.0 0.00 0.00 0.00 53 974.6
20260506113610 64 67 3.0 1.0 0.00 0.00 0.00 53 974.6
20260506112610 62 157 3.0 11.0 0.00 0.00 0.00 53 974.6
20260506111609 65 247 3.0 3.0 0.00 0.00 0.00 55 974.6
20260506110609 64 225 1.0 6.0 0.00 0.00 0.00 54 974.6
20260506105610 65 202 3.0 5.0 0.00 0.00 0.00 56 974.8
20260506104609 63 202 2.0 4.0 0.00 0.00 0.00 56 974.8
20260506103609 63 247 3.0 5.0 0.00 0.00 0.00 56 974.6
20260506102609 63 337 3.0 4.0 0.00 0.00 0.00 56 974.6
20260506101609 62 247 3.0 6.0 0.00 0.00 0.00 56 974.5
20260506100609 62 225 2.0 0.0 0.00 0.00 0.00 56 974.5
20260506095609 62 135 2.0 3.0 0.00 0.00 0.00 56 974.6
20260506094609 61 225 2.0 1.0 0.00 0.00 0.00 57 974.6
20260506093614 64 315 2.0 3.0 0.00 0.00 0.00 58 974.5
20260506092614 63 247 3.0 4.0 0.00 0.00 0.00 57 974.5
20260506091614 61 225 2.0 2.0 0.00 0.00 0.00 57 974.4
20260506090614 60 180 2.0 4.0 0.00 0.00 0.00 58 974.4
20260506085614 59 112 2.0 2.0 0.00 0.00 0.00 58 974.1
20260506084614 58 180 2.0 7.0 0.00 0.00 0.00 58 974.1
20260506083614 58 247 1.0 0.0 0.00 0.00 0.00 58 973.9